Time,TemperatureF,DewpointF,PressureIn,WindDirection,WindDirectionDegrees,WindSpeedMPH,WindSpeedGustMPH,Humidity,HourlyPrecipIn,Conditions,Clouds,dailyrainin,SoftwareType,DateUTC
2013-10-13 00:02:00,-999.0,-99.9,-100.00,East,95,0.0,1.0,-999,-99.99,,,-99.99,,2013-10-13 04:02:00,
2013-10-13 01:43:00,58.0,56.0,-100.00,ESE,105,0.0,1.0,91,0.00,,,-99.99,,2013-10-13 05:43:00,
2013-10-13 01:52:00,58.0,56.0,-100.00,ESE,105,0.0,1.0,91,0.00,,,-99.99,,2013-10-13 05:52:00,
2013-10-13 02:02:00,58.0,56.0,-100.00,ESE,105,0.0,1.0,91,0.00,,,-99.99,,2013-10-13 06:02:00,
2013-10-13 10:52:00,65.0,58.0,-100.00,SSW,210,1.0,3.0,75,0.00,,,-99.99,,2013-10-13 14:52:00,
2013-10-13 11:54:00,69.0,58.0,-100.00,NW,305,0.0,4.0,69,0.00,,,-99.99,,2013-10-13 15:54:00,
2013-10-13 12:13:00,69.0,59.0,-100.00,NW,305,1.0,4.0,68,0.00,,,-99.99,,2013-10-13 16:13:00,
2013-10-13 13:22:00,71.0,60.0,-100.00,NW,310,3.0,6.0,66,0.00,,,-99.99,,2013-10-13 17:22:00,
2013-10-13 13:43:00,71.0,60.0,-100.00,West,260,4.0,9.0,67,0.00,,,-99.99,,2013-10-13 17:43:00,
2013-10-13 14:42:00,71.0,60.0,-100.00,NW,305,4.0,7.0,67,0.00,,,-99.99,,2013-10-13 18:42:00,
2013-10-13 15:22:00,70.0,60.0,-100.00,NW,315,2.0,9.0,69,0.00,,,-99.99,,2013-10-13 19:22:00,
2013-10-13 15:42:00,70.0,59.0,-100.00,WNW,295,2.0,6.0,68,0.00,,,-99.99,,2013-10-13 19:42:00,
2013-10-13 16:22:00,70.0,60.0,-100.00,WNW,290,1.0,4.0,68,0.00,,,-99.99,,2013-10-13 20:22:00,
2013-10-13 16:43:00,70.0,60.0,-100.00,SE,135,1.0,4.0,69,0.00,,,-99.99,,2013-10-13 20:43:00,
2013-10-13 17:22:00,69.0,60.0,-100.00,NE,45,1.0,2.0,72,0.00,,,-99.99,,2013-10-13 21:22:00,
2013-10-13 17:34:00,69.0,60.0,-100.00,NE,45,1.0,2.0,72,0.00,,,-99.99,,2013-10-13 21:34:00,
2013-10-13 17:55:00,68.0,60.0,-100.00,East,80,2.0,4.0,77,0.00,,,-99.99,,2013-10-13 21:55:00,
2013-10-13 18:24:00,68.0,61.0,-100.00,NNE,20,1.0,4.0,77,0.00,,,-99.99,,2013-10-13 22:24:00,
2013-10-13 18:43:00,67.0,60.0,-100.00,East,80,1.0,3.0,77,0.00,,,-99.99,,2013-10-13 22:43:00,
2013-10-13 19:52:00,66.0,60.0,-100.00,NE,35,1.0,4.0,80,0.00,,,-99.99,,2013-10-13 23:52:00,
2013-10-13 20:12:00,66.0,60.0,-100.00,ENE,75,0.0,2.0,81,0.00,,,-99.99,,2013-10-14 00:12:00,
2013-10-13 20:52:00,65.0,60.0,-100.00,SSE,150,1.0,2.0,83,0.00,,,-99.99,,2013-10-14 00:52:00,
2013-10-13 21:21:00,65.0,60.0,-100.00,NW,315,3.0,4.0,85,0.00,,,-99.99,,2013-10-14 01:21:00,
2013-10-13 21:32:00,65.0,60.0,-100.00,NW,315,3.0,4.0,85,0.00,,,-99.99,,2013-10-14 01:32:00,
2013-10-13 21:42:00,65.0,60.0,-100.00,NW,315,3.0,4.0,85,0.00,,,-99.99,,2013-10-14 01:42:00,
2013-10-13 21:52:00,65.0,60.0,-100.00,NW,315,3.0,4.0,85,0.00,,,-99.99,,2013-10-14 01:52:00,